Погода в Гневкове

Россия / Смоленская область     53°54′18″N   32°31′17″E
темп.,
°C
ветер,
м/с
пор.,
м/с
влажн.,
%
обл.,
%
осадки,
мм/ч
давл.,
гПа
погр.,
м
8 марта, пн
пн800:00−6з5138165 0.0 1002336
03:00−7з5139049 0.0 1003377
06:00−7з5139126 0.0 1003420
09:00−7зсз5119446 0.0 1004441
12:00−4сз578598 0.1 1006854
15:00−4сз578087 0.2 10071014
18:00−6сз488990 0.1 1009458
21:00−10ссз489294 0.1 1012162
9 марта, вт
вт900:00−12ссз489669 0.0 1014185
03:00−14ссз379770 0.0 1016127
06:00−16ссз359741 0.0 101791
09:00−14ссз379434 0.0 1019238
12:00−9ссз478523 0.0 1020622
15:00−8сз468352 0.1 1021986
18:00−9сз3589100 0.1 1021165
21:00−13сз239076 0.1 102424
10 марта, ср
ср1000:00−14зсз22900 0.0 102520
03:00−14зюз118922 0.0 102520
06:00−11ююв2396100 0.6 1025123
09:00−10юв2395100 2.2 1025186
12:00−9в5793100 0.9 1026399
15:00−9всв5789100 1.2 1027497
18:00−12в378899 0.0 1028241
21:00−17в478656 0.0 1030113
11 марта, чт
чт1100:00−19вюв34870 0.0 103265
03:00−21вюв33900 0.0 103337
06:00−21вюв349236 0.0 103345
09:00−19юв368440 0.0 1034190
12:00−12ююв46770 0.0 1033335
15:00−9ююв46720 0.0 1031550
18:00−11ююв47830 0.0 1029184
21:00−14ююв511870 0.0 1029244
12 марта, пт
пт1200:00−15ююв6129098 0.0 1027275
03:00−13ююв6139499 0.0 1024353
06:00−10ююв81688100 0.0 1021478
09:00−7ю91883100 0.0 1017793
12:00−4ю111893100 1.5 10141074
15:00−2ю111894100 4.9 10111109
18:00−1ююз91696100 1.4 1009849
21:00+1ююз71398100 3.5 1009521